Flag for U.S.A. Weather past 2 weeks in Clarksville, Tennessee, U.S.A.

Now
70 °F

Light rain. Cloudy.


Feels Like: 70 °F
Forecast: 64 / 71 °F
Wind: 12 mph from South

Location: Outlaw Field

Current Time: Apr 19, 2015 at 2:54:12 PM

Latest Report: Apr 19, 2015 at 1:52 PM


Visibility: 10 mi

Pressure: 29.54 "Hg

Humidity: 81%

Dew point: 64 °F

Location of ClarksvilleLocation

Historic Weather in Clarksville — Graph

°F

Clarksville temperature yesterday

Maximum temperature yesterday: 79 °F (at 3:52 PM)
Minimum temperature yesterday: 53 °F (at 4:58 AM)
Average temperature yesterday: 67 °F

Past Weeks' High & Low Weather Summary

 TemperatureHumidityPressure
High83 °F (Apr 8, 2:52 PM)100% (Apr 16, 2:52 AM)30.37 "Hg (Apr 16, 2:52 AM)
Low33 °F (Apr 5, 4:59 AM)22% (Apr 12, 3:52 PM)29.56 "Hg (Apr 19, 12:52 PM)
Average64 °F73%30.04 "Hg
* Reported Apr 4 1:52 PM — Apr 19 1:04 PM, Clarksville, Weather by CustomWeather, © 2015

Note: Actual official high and low records may vary slightly from our data, if they occured in-between our weather recording intervals... More about our weather records

Advertising

Clarksville weather history for previous 24 hours

 ConditionsComfort  
Time TempWeatherWind HumidityBarometerVisibility
1:04 PM
Sun, Apr 19
72 °FPartly sunny.13 mph73%29.57 "Hg10 mi
12:52 PM74 °FBroken clouds.14 mph74%29.56 "Hg10 mi
11:52 AM72 °FBroken clouds.9 mph73%29.57 "Hg10 mi
11:01 AM70 °FPartly sunny.9 mph84%29.61 "Hg10 mi
9:52 AM68 °FLight rain. Cloudy.6 mph93%29.60 "Hg10 mi
9:00 AM65 °FLight rain. Fog.No wind97%29.65 "Hg5 mi
8:01 AM64 °FRain. Fog.3 mph97%29.67 "Hg2 mi
7:00 AM65 °FRain. Fog.7 mph97%29.69 "Hg2 mi
5:52 AM64 °FRain. Fog.8 mph100%29.69 "Hg5 mi
5:00 AM64 °FLight rain. Fog.6 mph97%29.72 "Hg5 mi
3:52 AM64 °FLight rain. Mostly cloudy.5 mph97%29.73 "Hg7 mi
2:52 AM65 °FRain. Fog.No wind91%29.75 "Hg5 mi
1:52 AM66 °FLight rain. Mostly cloudy.6 mph81%29.78 "Hg10 mi
12:52 AM68 °FOvercast.6 mph76%29.80 "Hg10 mi
11:52 PM
Sat, Apr 18
69 °FMostly cloudy.8 mph76%29.82 "Hg10 mi
10:52 PM69 °FMostly cloudy.6 mph76%29.84 "Hg10 mi
9:52 PM71 °FMostly cloudy.3 mph68%29.85 "Hg10 mi
8:52 PM70 °FOvercast.7 mph71%29.86 "Hg10 mi
7:52 PM72 °FClear.3 mph61%29.86 "Hg10 mi
6:52 PM74 °FSunny.5 mph62%29.86 "Hg10 mi
5:52 PM76 °FSunny.5 mph56%29.87 "Hg10 mi
4:52 PM78 °FSunny.9 mph50%29.86 "Hg10 mi
3:52 PM79 °FPassing clouds.12 mph47%29.88 "Hg10 mi
2:52 PM77 °FScattered clouds.6 mph54%29.91 "Hg10 mi
Weather by CustomWeather, © 2015

See weather overviewHow to use our weather pages